Presure
195 192 193 179 207 195 205 251 251 222 230 211 195 200 203 198 184 192 188 219 223 213 200 204 199 187 190 191 190 187 180 184 176 181 179 196 192 197 190 199 210 193 194
190 190 152 187 181 194 212 213 251 260 222 207 216 210 202 189 188 193 228 215 221 214 194 194 183 183 196 183 198 179 172 179 188 178 194 183 212 210 199 177 190 168 184
191 191 185 204 177 184 216 241 250 257 244 230 209 209 200 191 212 231 224 212 217 206 191 203 182 201 192 177 181 171 179 175 178 180 184 172 191 171 187 169 186 180 179
201 144 191 197 191 198 199 217 253 250 239 220 203 196 198 279 234 229 216 208 218 192 195 187 186 181 191 181 173 169 178 172 171 172 172 185 179 176 176 178 179 193 183
179 181 187 181 197 184 196 215 252 248 234 219 200 194 213 229 229 230 219 208 216 193 196 183 194 178 175 176 171 164 175 166 164 169 170 187 181 188 173 184 167 175 182
170 161 162 183 187 194 196 214 250 250 237 208 191 222 251 233 238 235 219 207 196 208 185 181 176 181 177 168 161 173 175 171 171 169 170 183 182 177 178 174 183 171 168
183 180 183 188 192 192 187 204 253 242 238 210 193 193 250 243 237 233 222 215 210 189 189 183 182 182 162 177 174 162 171 164 170 173 182 157 184 168 163 164 162 169 169
163 183 182 145 185 197 213 211 255 240 184 205 193 227 250 244 230 231 223 216 186 193 189 172 182 168 171 174 163 175 173 173 161 172 162 182 178 164 174 181 186 181 173
183 179 182 181 186 198 217 235 256 242 229 205 191 242 254 235 221 202 215 210 183 181 188 177 181 170 173 168 163 167 174 170 181 191 172 173 182 164 170 172 169 179 170
184 188 181 157 204 203 215 228 256 242 235 206 221 358 233 233 222 204 205 200 201 188 182 184 190 181 170 169 173 173 173 184 166 166 183 187 178 179 179 171 164 156 188
181 177 194 171 198 203 210 215 253 252 230 205 221 287 214 221 216 221 206 204 187 185 174 181 189 180 170 171 176 181 185 187 173 175 178 182 184 162 167 174 174 175 173
187 189 196 182 196 213 203 227 251 248 224 208 221 259 241 222 212 203 211 211 195 202 203 204 190 179 188 178 178 180 183 181 188 182 176 159 167 164 170 174 181 185 193
182 186 198 207 195 212 202 238 261 243 214 208 217 238 227 218 228 211 215 198 215 205 204 205 188 191 191 184 174 180 161 182 172 168 189 174 162 170 188 169 185 184 175
186 179 209 193 199 203 201 238 267 235 221 205 217 239 218 229 224 213 221 210 208 209 209 200 207 193 183 182 190 184 188 177 184 161 190 197 181 173 182 178 190 179 168
197 189 183 201 194 213 215 244 262 229 209 203 224 244 218 208 216 198 223 211 224 210 216 205 207 201 184 185 182 177 184 198 190 185 179 182 183 177 177 175 190 183 172
199 195 213 208 204 219 206 248 250 219 202 202 219 234 226 210 199 206 209 220 224 222 221 202 190 184 188 205 183 177 175 178 188 185 166 180 180 188 195 172 187 194 204
126 199 214 213 207 214 220 242 243 217 203 201 197 252 233 217 205 200 195 203 200 209 208 194 195 189 189 192 193 194 184 183 182 185 190 195 197 200 187 205 198 212 201
211 196 224 205 216 207 213 244 239 216 201 192 200 209 249 221 205 196 190 188 196 196 193 201 203 193 187 181 183 179 179 189 189 191 189 200 192 182 209 211 202 198 185
195 144 192 200 212 220 222 249 234 214 202 192 201 193 211 237 213 202 200 202 207 190 184 181 184 184 180 179 180 183 186 194 202 208 195 216 216 208 204 186 189 189 201
166 172 206 177 190 213 226 254 235 214 204 193 191 193 185 195 215 217 205 201 200 199 199 199 198 195 204 223 228 230 230 221 216 225 214 212 191 198 202 204 205 204 195
202 204 201 217 211 205 221 255 238 213 203 193 188 193 185 186 193 188 189 197 209 211 213 212 208 205 202 200 199 203 203 202 199 195 194 192 190 182 183 188 185 192 184
235 217 215 214 210 216 226 287 243 214 201 201 185 191 190 184 185 191 186 191 180 187 190 192 191 191 189 188 188 189 190 185 184 187 189 185 190 185 193 189 195 195 190
233 164 229 227 230 235 251 259 248 217 205 200 194 191 184 190 192 189 190 190 191 188 179 175 181 175 183 180 178 182 181 178 187 185 184 180 185 191 193 185 187 181 192
254 243 235 241 247 255 261 237 250 219 208 198 202 191 180 189 168 185 197 207 221 190 180 187 189 184 181 181 185 190 188 196 190 183 191 193 186 182 189 186 188 186 185
236 210 229 229 231 230 244 257 251 223 210 204 192 200 192 196 200 190 191 181 172 182 169 170 181 178 186 185 185 186 193 193 192 202 174 195 182 195 190 190 180 197 194
237 228 188 236 235 228 229 261 247 218 203 205 201 192 199 180 195 192 192 196 189 176 184 183 188 191 173 184 190 179 191 189 198 201 202 192 178 207 191 191 189 198 194
Wind_Speed
36 43 43 39 47 48 46 43 36 40 36 36 40 39 39 35 36 37 36 43 39 38 33 29 32 38 29 25 22 22 26 23 34 28 28 28 26 26 26 21 20 19 16
41 44 36 49 47 48 50 41 37 33 38 37 41 45 39 37 35 41 41 42 37 33 34 31 38 37 22 26 22 26 37 29 25 28 23 26 23 17 18 25 21 30 20
39 43 49 43 46 46 50 44 38 33 35 35 40 43 37 38 43 37 40 39 34 28 34 28 40 20 23 38 25 37 30 33 29 27 24 30 24 29 28 28 29 31 30
34 48 44 45 49 52 51 45 37 35 34 34 40 39 35 33 38 38 42 37 31 35 28 35 33 34 20 24 34 41 31 35 36 32 31 30 32 34 30 32 29 27 30
42 50 46 50 46 49 52 48 40 34 33 31 38 38 39 35 38 38 42 36 30 32 31 39 22 33 32 30 38 46 32 39 42 37 36 28 32 29 34 29 36 35 33
51 53 44 50 50 49 51 53 41 34 32 35 39 34 31 35 36 38 41 37 32 29 38 39 40 26 28 39 46 36 38 38 40 40 39 32 35 35 33 37 33 36 39
46 51 49 52 50 50 48 53 41 36 32 35 41 36 30 36 39 39 41 38 31 38 35 32 29 30 45 33 37 44 43 42 42 42 41 37 34 39 39 39 42 43 45
55 51 50 46 51 52 52 51 40 35 34 38 40 31 31 38 37 40 39 38 41 33 33 44 34 44 40 38 47 42 44 44 42 44 44 41 38 43 41 43 44 45 51
52 55 52 51 51 53 53 52 38 34 33 38 40 31 34 38 34 30 35 37 40 40 39 45 42 44 43 45 48 47 45 45 45 41 45 45 44 45 47 49 48 49 47
56 55 55 43 53 52 50 53 38 34 30 36 30 26 33 38 34 34 38 39 39 42 45 47 42 45 48 48 50 49 48 47 46 46 44 45 49 49 48 54 50 45 55
58 57 57 50 54 53 49 50 40 33 29 35 27 28 33 38 34 38 39 43 41 45 49 52 53 53 51 51 53 51 47 44 44 46 40 45 44 48 56 58 60 61 59
57 60 59 52 53 56 49 50 40 34 28 34 26 30 36 41 38 37 44 47 45 50 52 52 54 55 52 54 52 49 44 44 41 41 50 49 54 56 60 61 52 56 55
59 62 62 55 55 57 50 47 35 35 30 33 26 30 36 36 48 45 47 43 49 52 53 52 55 55 53 54 51 47 49 41 49 48 50 59 55 60 54 62 55 58 62
58 63 60 58 54 57 51 44 32 36 32 32 26 30 36 40 42 45 51 51 53 54 57 53 54 52 51 52 50 48 50 47 49 53 51 48 64 63 57 62 58 61 62
58 62 61 58 56 58 51 40 32 35 30 32 25 29 36 37 33 37 52 42 59 56 58 51 48 47 46 48 48 49 50 50 52 56 60 56 56 61 64 62 59 58 64
61 63 62 60 60 55 50 37 34 36 34 32 25 30 37 36 36 34 32 45 58 60 57 48 45 42 43 50 48 52 55 56 56 55 59 60 61 60 61 62 68 68 77
33 66 63 57 59 54 46 37 37 38 33 33 37 28 37 36 37 37 37 36 37 42 45 41 43 46 48 50 50 49 52 55 57 58 61 63 64 65 62 71 73 62 57
59 66 60 56 55 50 50 40 41 40 37 40 32 25 32 35 39 38 39 39 38 38 40 45 48 44 46 50 49 52 55 58 59 61 61 67 61 63 67 57 58 58 57
61 42 60 63 60 57 53 43 44 44 40 40 32 33 25 26 35 37 40 43 44 45 46 46 46 47 51 55 57 58 59 62 69 69 61 64 59 56 57 57 58 60 62
56 60 66 48 56 55 51 46 49 49 43 42 43 37 41 32 30 39 45 46 47 48 49 51 52 50 52 53 55 57 59 59 60 52 50 51 56 54 56 57 57 57 59
78 77 75 67 60 53 53 50 53 53 48 47 49 43 46 42 38 39 38 37 40 43 43 43 46 48 49 49 51 51 51 50 52 52 52 52 54 59 60 60 62 60 64
65 73 73 73 71 69 62 49 57 58 52 50 53 49 47 48 45 41 44 43 47 43 42 43 44 46 47 50 52 53 55 56 57 56 56 59 59 62 61 64 63 64 67
63 44 75 77 79 74 57 52 57 62 58 54 54 54 52 48 47 48 49 52 49 47 49 51 52 54 55 56 57 60 61 61 63 63 63 64 64 64 64 67 67 70 70
46 58 63 59 59 54 50 55 56 64 62 58 58 56 54 55 53 52 51 50 49 51 53 52 54 57 59 61 62 63 64 62 65 67 66 64 65 68 67 70 71 73 75
45 52 58 58 59 54 52 52 58 67 66 63 59 62 61 62 59 55 52 52 54 56 56 59 61 63 65 67 68 64 67 66 65 64 66 64 70 70 69 71 74 76 77
51 56 48 55 60 57 55 56 61 69 64 67 67 63 66 54 65 58 56 59 56 60 61 62 64 66 62 69 70 56 69 63 69 70 72 72 69 77 71 73 77 81 83
Wind_Direction
288 291 292 307 305 303 306 318 296 286 270 258 260 259 258 252 256 261 261 258 253 254 250 247 248 251 253 253 257 264 265 267 269 272 277 284 296 298 291 285 295 275 262
282 286 289 294 297 301 307 304 303 283 273 262 254 254 254 257 254 259 250 254 250 245 238 242 244 255 253 252 259 258 265 265 278 274 293 290 288 283 278 291 271 286 268
278 281 287 306 294 299 311 313 302 282 269 260 256 256 253 257 262 245 246 255 248 235 239 232 245 243 241 259 255 261 266 265 275 281 297 284 290 284 286 285 278 274 277
289 278 288 301 297 301 301 311 304 284 274 253 255 259 260 248 251 240 247 251 241 234 228 236 243 245 239 249 254 263 270 274 278 281 282 291 294 290 290 293 297 282 283
282 280 286 288 298 295 302 306 308 287 270 255 256 263 262 256 243 234 242 245 234 231 225 242 219 245 247 254 259 265 267 270 274 283 286 296 294 282 294 283 296 292 284
280 286 280 287 292 296 300 303 308 289 271 255 259 266 263 255 239 225 232 240 223 231 229 242 242 235 244 254 266 267 277 275 283 285 288 289 289 287 286 286 280 289 290
273 280 281 286 292 293 296 300 305 287 271 255 258 264 255 241 232 224 228 232 225 229 227 227 236 238 258 251 255 265 268 273 281 285 289 286 278 286 288 289 292 289 291
281 277 280 276 290 293 302 300 300 284 270 253 256 266 246 231 239 226 230 229 228 224 224 248 236 252 247 250 261 264 266 270 273 277 282 282 274 285 278 282 278 280 281
273 278 280 284 289 293 305 310 296 282 263 256 260 263 233 235 241 246 234 233 229 235 222 241 237 248 244 255 263 263 264 272 273 279 278 280 275 286 283 285 289 286 292
276 277 281 282 294 295 304 310 294 279 264 255 266 268 241 234 236 236 234 236 234 231 236 234 236 235 250 254 251 259 263 269 272 275 277 273 275 278 278 285 290 295 287
276 280 282 279 290 294 299 300 292 275 260 256 266 237 247 239 241 230 236 236 235 237 245 244 234 238 254 250 249 254 265 268 267 271 272 274 275 286 283 276 280 285 289
276 280 283 283 289 298 289 303 290 270 258 257 266 224 224 231 241 240 233 230 241 239 235 235 240 248 242 250 255 257 262 268 273 260 274 284 279 289 282 281 287 284 287
275 279 284 287 287 294 286 299 282 263 253 255 262 234 234 234 228 241 235 244 229 235 237 237 242 242 243 247 257 261 265 262 258 268 271 269 285 282 273 285 282 285 285
274 277 285 281 281 284 282 292 275 256 255 255 260 232 235 230 231 238 234 241 242 241 240 245 245 245 253 257 257 260 266 264 274 275 276 278 265 276 277 278 284 282 286
274 274 277 278 277 286 287 281 262 249 247 254 260 234 232 238 240 244 239 253 236 243 241 251 252 249 255 259 260 259 265 275 271 267 267 268 269 273 276 280 285 282 279
275 273 280 276 277 282 276 268 250 244 245 250 259 239 230 236 244 249 252 244 243 247 248 253 255 259 263 261 259 258 260 264 265 266 270 271 276 282 282 281 291 295 296
272 273 273 273 274 275 276 261 240 238 242 247 249 244 240 234 236 243 247 248 249 251 254 255 255 254 259 263 263 268 266 270 273 277 280 285 287 291 287 294 292 292 293
266 271 270 268 274 270 277 259 237 235 238 246 244 250 232 238 234 244 247 249 245 242 243 248 253 252 254 257 261 264 268 274 279 283 282 292 292 287 286 287 287 296 293
266 271 271 272 271 273 276 259 231 233 236 241 239 240 248 237 238 237 242 247 248 248 251 253 254 256 260 262 263 265 268 283 286 286 289 283 280 278 285 288 293 294 292
267 269 269 267 269 267 272 262 229 230 234 240 243 239 242 242 241 244 248 254 257 260 262 264 267 268 270 267 268 268 271 272 273 273 275 277 283 288 288 287 288 290 291
263 264 270 263 265 267 264 262 227 228 234 237 245 241 246 244 245 245 247 251 250 252 255 259 261 265 268 271 272 272 272 273 273 275 279 284 283 283 285 287 289 291 291
245 258 255 262 265 264 261 248 227 227 236 234 246 243 245 249 249 248 252 248 253 254 258 258 259 262 265 268 272 276 278 281 281 280 279 279 281 284 286 288 289 288 288
244 249 248 251 253 258 255 237 230 225 230 236 239 243 251 249 249 248 248 249 251 255 262 266 267 271 269 272 276 273 275 278 277 279 279 281 282 283 284 285 286 290 290
246 242 244 247 248 249 242 235 230 224 229 238 238 244 252 247 262 252 252 257 254 252 261 263 260 265 269 270 270 271 273 275 276 280 281 283 282 285 285 286 288 290 290
238 250 246 246 247 246 242 233 225 224 229 233 244 241 246 247 250 253 254 251 263 255 268 270 265 267 269 271 272 276 276 275 276 278 279 280 282 285 285 286 286 290 289
236 233 252 247 249 245 243 236 225 226 234 234 238 247 246 255 252 256 257 258 258 258 262 263 266 269 273 273 278 276 280 281 285 286 285 285 282 285 285 287 288 287 284